Time,TemperatureF,DewpointF,PressureIn,WindDirection,WindDirectionDegrees,WindSpeedMPH,WindSpeedGustMPH,Humidity,HourlyPrecipIn,Conditions,Clouds,dailyrainin,SolarRadiationWatts/m^2,SoftwareType,DateUTC
2013-01-21 00:00:00,54.6,52.6,29.52,WSW,250,5.0,5.0,93,0.20,RA,FEW,0.51,0.0,WeatherDisplay:10.37,2013-01-20 23:00:00,
2013-01-21 00:05:00,54.2,52.3,29.51,SW,232,3.5,3.5,93,0.20,RA,FEW,0.00,0.0,WeatherDisplay:10.37,2013-01-20 23:05:00,
2013-01-21 00:10:00,54.1,52.1,29.50,SW,232,0.0,0.0,93,0.19,RA,FEW,0.01,0.0,WeatherDisplay:10.37,2013-01-20 23:10:00,
2013-01-21 00:15:00,53.9,51.9,29.51,SW,232,3.5,3.5,93,0.19,RA,FEW,0.01,0.0,WeatherDisplay:10.37,2013-01-20 23:15:00,
2013-01-21 00:20:00,53.7,51.7,29.50,SW,232,3.5,3.5,93,0.18,,FEW,0.01,0.0,WeatherDisplay:10.37,2013-01-20 23:20:00,
2013-01-21 00:25:00,53.7,51.7,29.50,SW,232,2.0,2.0,93,0.08,CLR,FEW,0.01,0.0,WeatherDisplay:10.37,2013-01-20 23:25:00,
2013-01-21 00:30:00,53.7,52.0,29.50,SW,232,1.2,1.2,94,0.02,CLR,FEW,0.01,0.0,WeatherDisplay:10.37,2013-01-20 23:30:00,
2013-01-21 00:35:00,54.0,52.3,29.50,ESE,119,3.5,3.5,94,0.02,CLR,FEW,0.01,0.0,WeatherDisplay:10.37,2013-01-20 23:35:00,
2013-01-21 00:40:00,54.4,52.7,29.49,ESE,119,0.0,0.0,94,0.02,CLR,FEW,0.01,0.0,WeatherDisplay:10.37,2013-01-20 23:40:00,
2013-01-21 00:45:00,54.7,53.0,29.50,ESE,119,0.0,0.0,94,0.02,CLR,FEW,0.01,0.0,WeatherDisplay:10.37,2013-01-20 23:45:00,
2013-01-21 00:50:00,54.8,53.1,29.49,NE,46,0.0,0.0,94,0.02,CLR,FEW,0.01,0.0,WeatherDisplay:10.37,2013-01-20 23:50:00,
2013-01-21 00:55:00,55.0,53.3,29.49,NE,46,0.0,0.0,94,0.02,CLR,FEW,0.01,0.0,WeatherDisplay:10.37,2013-01-20 23:55:00,
2013-01-21 01:00:00,55.1,53.4,29.48,NE,46,0.0,0.0,94,0.02,CLR,FEW,0.01,0.0,WeatherDisplay:10.37,2013-01-21 00:00:00,
2013-01-21 01:05:00,55.2,53.5,29.49,East,81,1.2,1.2,94,0.01,CLR,FEW,0.01,0.0,WeatherDisplay:10.37,2013-01-21 00:05:00,
2013-01-21 01:10:00,55.3,53.6,29.49,NNE,24,6.0,6.0,94,0.00,CLR,FEW,0.01,0.0,WeatherDisplay:10.37,2013-01-21 00:10:00,
2013-01-21 01:15:00,55.3,53.6,29.49,NNE,25,3.5,3.5,94,0.00,CLR,FEW,0.01,0.0,WeatherDisplay:10.37,2013-01-21 00:15:00,
2013-01-21 01:20:00,55.4,53.7,29.48,ENE,76,2.3,2.3,94,0.00,CLR,FEW,0.01,0.0,WeatherDisplay:10.37,2013-01-21 00:20:00,
2013-01-21 01:25:00,55.4,53.7,29.48,NE,53,1.2,0.0,94,0.00,CLR,FEW,0.01,0.0,WeatherDisplay:10.37,2013-01-21 00:25:00,
2013-01-21 01:30:00,55.4,53.7,29.48,ENE,59,4.0,4.0,94,0.00,CLR,FEW,0.01,0.0,WeatherDisplay:10.37,2013-01-21 00:30:00,
2013-01-21 01:35:00,55.4,53.7,29.48,NE,56,0.0,0.0,94,0.00,CLR,FEW,0.01,0.0,WeatherDisplay:10.37,2013-01-21 00:35:00,
2013-01-21 01:40:00,55.3,53.6,29.48,ENE,59,1.2,0.0,94,0.00,CLR,FEW,0.01,0.0,WeatherDisplay:10.37,2013-01-21 00:40:00,
2013-01-21 01:45:00,55.3,53.6,29.48,ENE,59,2.3,2.3,94,0.00,CLR,FEW,0.01,0.0,WeatherDisplay:10.37,2013-01-21 00:45:00,
2013-01-21 01:50:00,55.3,53.6,29.48,ENE,59,1.2,0.0,94,0.00,CLR,FEW,0.01,0.0,WeatherDisplay:10.37,2013-01-21 00:50:00,
2013-01-21 01:55:00,55.3,53.6,29.48,ENE,59,2.0,2.0,94,0.00,CLR,FEW,0.01,0.0,WeatherDisplay:10.37,2013-01-21 00:55:00,
2013-01-21 02:00:00,55.3,53.6,29.48,ENE,59,0.0,0.0,94,0.00,CLR,FEW,0.01,0.0,WeatherDisplay:10.37,2013-01-21 01:00:00,
2013-01-21 02:06:00,55.3,53.6,29.47,SSE,163,6.0,6.0,94,0.00,CLR,FEW,0.01,0.0,WeatherDisplay:10.37,2013-01-21 01:06:00,
2013-01-21 02:11:00,55.2,53.5,29.47,SSE,158,0.0,0.1,94,0.00,CLR,FEW,0.01,0.0,WeatherDisplay:10.37,2013-01-21 01:11:00,
2013-01-21 02:16:00,55.2,53.5,29.47,SSE,158,1.2,1.2,94,0.00,CLR,FEW,0.01,0.0,WeatherDisplay:10.37,2013-01-21 01:16:00,
2013-01-21 02:21:00,55.2,53.5,29.47,SE,132,0.0,0.0,94,0.00,CLR,FEW,0.01,0.0,WeatherDisplay:10.37,2013-01-21 01:21:00,
2013-01-21 02:26:00,55.2,53.5,29.47,East,98,6.9,6.9,94,0.00,CLR,FEW,0.01,0.0,WeatherDisplay:10.37,2013-01-21 01:26:00,
2013-01-21 02:31:00,55.2,53.5,29.47,East,98,0.0,0.0,94,0.00,CLR,FEW,0.01,0.0,WeatherDisplay:10.37,2013-01-21 01:31:00,
2013-01-21 02:36:00,55.1,53.4,29.47,ENE,61,3.5,3.5,94,0.00,CLR,FEW,0.01,0.0,WeatherDisplay:10.37,2013-01-21 01:36:00,
2013-01-21 02:41:00,55.1,53.4,29.46,ENE,57,3.5,3.5,94,0.00,CLR,FEW,0.01,0.0,WeatherDisplay:10.37,2013-01-21 01:41:00,
2013-01-21 02:46:00,55.0,53.3,29.46,ESE,109,8.1,8.1,94,0.00,CLR,FEW,0.01,0.0,WeatherDisplay:10.37,2013-01-21 01:46:00,
2013-01-21 02:51:00,55.0,53.3,29.45,ENE,63,3.5,3.5,94,0.01,RA,FEW,0.02,0.0,WeatherDisplay:10.37,2013-01-21 01:51:00,
2013-01-21 02:56:00,54.9,53.2,29.45,ENE,62,3.5,3.5,94,0.01,RA,FEW,0.02,0.0,WeatherDisplay:10.37,2013-01-21 01:56:00,
2013-01-21 03:01:00,54.8,53.1,29.45,East,100,1.2,1.2,94,0.01,CLR,FEW,0.02,0.0,WeatherDisplay:10.37,2013-01-21 02:01:00,
2013-01-21 03:06:00,54.8,53.1,29.45,ESE,116,1.2,1.2,94,0.01,CLR,FEW,0.02,0.0,WeatherDisplay:10.37,2013-01-21 02:06:00,
2013-01-21 03:11:00,54.8,53.1,29.45,NE,37,3.5,3.5,94,0.01,CLR,FEW,0.02,0.0,WeatherDisplay:10.37,2013-01-21 02:11:00,
2013-01-21 03:17:00,54.8,53.1,29.45,East,80,3.5,3.5,94,0.01,CLR,FEW,0.02,0.0,WeatherDisplay:10.37,2013-01-21 02:17:00,
2013-01-21 03:22:00,54.8,53.1,29.45,SE,132,9.2,9.2,94,0.01,CLR,FEW,0.02,0.0,WeatherDisplay:10.37,2013-01-21 02:22:00,
2013-01-21 03:27:00,54.9,53.2,29.45,SSE,155,4.6,4.6,94,0.01,CLR,FEW,0.02,0.0,WeatherDisplay:10.37,2013-01-21 02:27:00,
2013-01-21 03:32:00,54.9,53.2,29.44,South,189,3.5,3.5,94,0.01,CLR,FEW,0.02,0.0,WeatherDisplay:10.37,2013-01-21 02:32:00,
2013-01-21 03:38:00,54.9,53.2,29.44,SSW,209,4.6,4.6,94,0.01,CLR,FEW,0.02,0.0,WeatherDisplay:10.37,2013-01-21 02:38:00,
2013-01-21 03:43:00,54.9,53.2,29.44,SSE,155,4.6,0.0,94,0.01,CLR,FEW,0.02,0.0,WeatherDisplay:10.37,2013-01-21 02:43:00,
2013-01-21 03:48:00,54.9,53.2,29.44,SSE,155,2.3,2.3,94,0.00,CLR,FEW,0.02,0.0,WeatherDisplay:10.37,2013-01-21 02:48:00,
2013-01-21 03:53:00,54.9,53.2,29.43,South,186,1.2,1.2,94,0.00,CLR,FEW,0.02,0.0,WeatherDisplay:10.37,2013-01-21 02:53:00,
2013-01-21 03:58:00,54.9,53.2,29.43,East,84,4.6,4.6,94,0.00,CLR,FEW,0.02,0.0,WeatherDisplay:10.37,2013-01-21 02:58:00,
2013-01-21 04:03:00,54.9,53.2,29.43,SSW,192,2.3,2.3,94,0.00,CLR,FEW,0.02,0.0,WeatherDisplay:10.37,2013-01-21 03:03:00,
2013-01-21 04:08:00,54.8,53.1,29.43,SSE,157,2.3,2.3,94,0.00,CLR,FEW,0.02,0.0,WeatherDisplay:10.37,2013-01-21 03:08:00,
2013-01-21 04:13:00,54.8,53.1,29.42,NE,53,3.5,3.5,94,0.00,CLR,FEW,0.02,0.0,WeatherDisplay:10.37,2013-01-21 03:13:00,
2013-01-21 04:18:00,54.9,53.2,29.42,SSW,209,3.5,3.5,94,0.00,CLR,FEW,0.02,0.0,WeatherDisplay:10.37,2013-01-21 03:18:00,
2013-01-21 04:23:00,54.8,53.1,29.41,WSW,251,5.8,5.8,94,0.01,RA,FEW,0.02,0.0,WeatherDisplay:10.37,2013-01-21 03:23:00,
2013-01-21 04:28:00,54.8,53.1,29.41,SSE,159,6.9,6.9,94,0.01,RA,FEW,0.02,0.0,WeatherDisplay:10.37,2013-01-21 03:28:00,
2013-01-21 04:33:00,54.8,53.1,29.41,ESE,112,11.0,11.0,94,0.01,CLR,FEW,0.02,0.0,WeatherDisplay:10.37,2013-01-21 03:33:00,
2013-01-21 04:38:00,54.9,53.2,29.41,South,171,6.9,6.9,94,0.01,CLR,FEW,0.02,0.0,WeatherDisplay:10.37,2013-01-21 03:38:00,
2013-01-21 04:43:00,54.9,53.2,29.41,ESE,115,8.1,8.1,94,0.01,CLR,FEW,0.02,0.0,WeatherDisplay:10.37,2013-01-21 03:43:00,
2013-01-21 04:48:00,54.9,53.2,29.41,SSW,201,6.9,6.9,94,0.01,CLR,FEW,0.02,0.0,WeatherDisplay:10.37,2013-01-21 03:48:00,
2013-01-21 04:53:00,54.9,53.2,29.41,East,95,4.0,4.0,94,0.01,CLR,FEW,0.02,0.0,WeatherDisplay:10.37,2013-01-21 03:53:00,
2013-01-21 04:58:00,54.9,53.2,29.40,ESE,111,6.9,6.9,94,0.01,CLR,FEW,0.02,0.0,WeatherDisplay:10.37,2013-01-21 03:58:00,
2013-01-21 05:03:00,55.0,53.3,29.40,SSW,201,9.2,9.2,94,0.01,CLR,FEW,0.02,0.0,WeatherDisplay:10.37,2013-01-21 04:03:00,
2013-01-21 05:08:00,55.0,53.0,29.39,East,86,8.1,8.1,93,0.01,CLR,FEW,0.02,0.0,WeatherDisplay:10.37,2013-01-21 04:08:00,
2013-01-21 05:13:00,55.1,53.1,29.39,ENE,74,4.6,4.6,93,0.01,CLR,FEW,0.02,0.0,WeatherDisplay:10.37,2013-01-21 04:13:00,
2013-01-21 05:18:00,55.1,53.1,29.39,ENE,78,3.0,3.0,93,0.01,CLR,FEW,0.03,0.0,WeatherDisplay:10.37,2013-01-21 04:18:00,
2013-01-21 05:24:00,55.2,53.2,29.39,ESE,115,3.5,3.5,93,0.03,RA,FEW,0.06,0.0,WeatherDisplay:10.37,2013-01-21 04:24:00,
2013-01-21 05:29:00,55.2,53.2,29.39,West,272,4.0,4.0,93,0.03,RA,FEW,0.06,0.0,WeatherDisplay:10.37,2013-01-21 04:29:00,
2013-01-21 05:34:00,53.7,51.1,29.40,SW,234,14.0,14.0,91,0.06,RA,FEW,0.11,0.0,WeatherDisplay:10.37,2013-01-21 04:34:00,
2013-01-21 05:39:00,51.3,48.8,29.40,West,274,12.7,12.7,91,0.11,RA,FEW,0.13,0.0,WeatherDisplay:10.37,2013-01-21 04:39:00,
2013-01-21 05:44:00,50.2,48.0,29.39,West,267,15.0,15.0,92,0.13,RA,FEW,0.15,0.0,WeatherDisplay:10.37,2013-01-21 04:44:00,
2013-01-21 05:49:00,49.6,47.4,29.40,WSW,242,12.7,12.7,92,0.13,RA,FEW,0.16,0.0,WeatherDisplay:10.37,2013-01-21 04:49:00,
2013-01-21 05:54:00,49.2,47.0,29.40,WSW,242,17.3,17.3,92,0.14,RA,FEW,0.17,0.0,WeatherDisplay:10.37,2013-01-21 04:54:00,
2013-01-21 05:59:00,49.0,47.1,29.41,WSW,240,18.4,18.4,93,0.15,RA,FEW,0.17,0.0,WeatherDisplay:10.37,2013-01-21 04:59:00,
2013-01-21 06:02:00,48.9,47.0,29.41,West,260,16.1,16.1,93,0.15,RA,FEW,0.17,0.0,WeatherDisplay:10.37,2013-01-21 05:02:00,
2013-01-21 06:03:00,49.0,47.1,29.41,North,355,16.1,16.1,93,0.16,RA,FEW,0.18,0.0,WeatherDisplay:10.37,2013-01-21 05:03:00,
2013-01-21 06:08:00,48.9,47.0,29.43,NNE,15,8.0,8.0,93,0.16,RA,FEW,0.18,0.0,WeatherDisplay:10.37,2013-01-21 05:08:00,
2013-01-21 06:13:00,48.8,46.9,29.44,ESE,109,11.5,11.5,93,0.17,RA,FEW,0.19,0.0,WeatherDisplay:10.37,2013-01-21 05:13:00,
2013-01-21 06:18:00,48.8,46.9,29.44,NE,46,5.8,5.8,93,0.17,RA,FEW,0.20,0.0,WeatherDisplay:10.37,2013-01-21 05:18:00,
2013-01-21 06:23:00,48.9,47.0,29.44,NNE,32,6.9,6.9,93,0.16,RA,FEW,0.21,0.0,WeatherDisplay:10.37,2013-01-21 05:23:00,
2013-01-21 06:28:00,48.9,47.0,29.43,NNW,346,5.8,5.8,93,0.17,RA,FEW,0.23,0.0,WeatherDisplay:10.37,2013-01-21 05:28:00,
2013-01-21 06:34:00,48.8,46.9,29.42,ENE,71,4.6,4.6,93,0.16,RA,FEW,0.24,0.0,WeatherDisplay:10.37,2013-01-21 05:34:00,
2013-01-21 06:39:00,48.4,46.5,29.41,West,278,11.5,11.5,93,0.13,RA,FEW,0.26,0.0,WeatherDisplay:10.37,2013-01-21 05:39:00,
2013-01-21 06:44:00,48.2,46.3,29.41,WSW,240,9.2,9.2,93,0.11,RA,FEW,0.27,0.0,WeatherDisplay:10.37,2013-01-21 05:44:00,
2013-01-21 06:49:00,48.1,46.2,29.41,WSW,252,3.5,3.5,93,0.11,RA,FEW,0.27,0.0,WeatherDisplay:10.37,2013-01-21 05:49:00,
2013-01-21 06:54:00,48.1,46.2,29.42,North,5,2.3,2.3,93,0.10,RA,FEW,0.27,0.0,WeatherDisplay:10.37,2013-01-21 05:54:00,
2013-01-21 06:59:00,48.1,46.2,29.42,West,266,3.5,3.5,93,0.09,CLR,FEW,0.27,0.0,WeatherDisplay:10.37,2013-01-21 05:59:00,
2013-01-21 07:04:00,48.1,46.2,29.42,West,266,3.5,3.5,93,0.09,OVC,FEW,0.27,0.0,WeatherDisplay:10.37,2013-01-21 06:04:00,
2013-01-21 07:09:00,48.2,46.3,29.43,South,191,4.6,4.6,93,0.09,OVC,FEW,0.27,0.0,WeatherDisplay:10.37,2013-01-21 06:09:00,
2013-01-21 07:14:00,48.2,46.3,29.42,WSW,252,3.5,3.5,93,0.07,OVC,FEW,0.27,0.0,WeatherDisplay:10.37,2013-01-21 06:14:00,
2013-01-21 07:19:00,48.4,46.5,29.43,SW,223,6.0,6.0,93,0.06,OVC,FEW,0.27,0.0,WeatherDisplay:10.37,2013-01-21 06:19:00,
2013-01-21 07:24:00,48.6,46.7,29.43,South,172,5.8,5.8,93,0.06,RA,FEW,0.28,0.0,WeatherDisplay:10.37,2013-01-21 06:24:00,
2013-01-21 07:29:00,48.7,46.8,29.43,SSW,198,4.6,4.6,93,0.05,RA,FEW,0.28,0.0,WeatherDisplay:10.37,2013-01-21 06:29:00,
2013-01-21 07:34:00,48.8,46.9,29.43,SW,230,4.6,4.6,93,0.03,OVC,FEW,0.28,0.0,WeatherDisplay:10.37,2013-01-21 06:34:00,
2013-01-21 07:39:00,48.9,47.0,29.44,SW,230,4.0,4.0,93,0.02,OVC,FEW,0.28,0.0,WeatherDisplay:10.37,2013-01-21 06:39:00,
2013-01-21 07:44:00,49.1,47.2,29.44,SW,232,4.0,4.0,93,0.02,OVC,FEW,0.28,0.0,WeatherDisplay:10.37,2013-01-21 06:44:00,
2013-01-21 07:49:00,49.3,47.6,29.44,WSW,252,3.5,3.5,94,0.01,OVC,FEW,0.28,0.0,WeatherDisplay:10.37,2013-01-21 06:49:00,
2013-01-21 07:54:00,49.5,47.6,29.44,WSW,256,3.5,3.5,93,0.01,OVC,FEW,0.28,0.0,WeatherDisplay:10.37,2013-01-21 06:54:00,
2013-01-21 07:59:00,49.6,47.7,29.44,West,278,4.6,4.6,93,0.01,OVC,FEW,0.28,0.0,WeatherDisplay:10.37,2013-01-21 06:59:00,
2013-01-21 08:04:00,49.6,47.9,29.44,West,278,1.2,1.2,94,0.01,OVC,FEW,0.28,0.0,WeatherDisplay:10.37,2013-01-21 07:04:00,
2013-01-21 08:10:00,49.5,47.6,29.44,West,275,0.0,0.0,93,0.01,OVC,FEW,0.28,0.0,WeatherDisplay:10.37,2013-01-21 07:10:00,
2013-01-21 08:15:00,49.4,47.5,29.45,West,275,1.2,0.0,93,0.01,OVC,FEW,0.28,0.0,WeatherDisplay:10.37,2013-01-21 07:15:00,
2013-01-21 08:20:00,49.4,47.5,29.45,West,275,2.3,2.3,93,0.01,OVC,FEW,0.28,0.0,WeatherDisplay:10.37,2013-01-21 07:20:00,
2013-01-21 08:25:00,49.4,47.5,29.45,West,275,3.5,3.5,93,0.00,OVC,FEW,0.28,0.0,WeatherDisplay:10.37,2013-01-21 07:25:00,
2013-01-21 08:30:00,49.4,47.5,29.45,West,275,3.5,3.5,93,0.00,OVC,FEW,0.28,0.0,WeatherDisplay:10.37,2013-01-21 07:30:00,
2013-01-21 08:35:00,49.5,47.6,29.45,West,275,0.0,0.0,93,0.00,OVC,FEW,0.28,0.0,WeatherDisplay:10.37,2013-01-21 07:35:00,
2013-01-21 08:40:00,49.5,47.8,29.46,West,275,1.2,1.2,94,0.00,OVC,FEW,0.28,0.0,WeatherDisplay:10.37,2013-01-21 07:40:00,
2013-01-21 08:45:00,49.6,47.9,29.46,West,275,2.3,2.3,94,0.00,OVC,FEW,0.28,0.0,WeatherDisplay:10.37,2013-01-21 07:45:00,
2013-01-21 08:50:00,49.6,47.9,29.46,West,275,1.2,0.0,94,0.00,OVC,FEW,0.28,0.0,WeatherDisplay:10.37,2013-01-21 07:50:00,
2013-01-21 08:55:00,49.7,48.0,29.46,West,275,2.3,0.0,94,0.00,OVC,FEW,0.28,0.0,WeatherDisplay:10.37,2013-01-21 07:55:00,
2013-01-21 09:00:00,49.7,48.0,29.46,West,275,0.0,0.0,94,0.00,OVC,FEW,0.28,0.0,WeatherDisplay:10.37,2013-01-21 08:00:00,
2013-01-21 09:05:00,49.8,48.1,29.46,West,275,2.3,0.0,94,0.00,OVC,FEW,0.28,0.0,WeatherDisplay:10.37,2013-01-21 08:05:00,
2013-01-21 09:10:00,49.9,48.2,29.46,West,275,1.2,1.2,94,0.00,OVC,FEW,0.28,0.0,WeatherDisplay:10.37,2013-01-21 08:10:00,
2013-01-21 09:15:00,50.0,48.3,29.46,West,275,2.3,2.3,94,0.00,OVC,FEW,0.28,0.0,WeatherDisplay:10.37,2013-01-21 08:15:00,
2013-01-21 09:21:00,50.1,48.4,29.46,West,275,0.0,3.0,94,0.00,OVC,FEW,0.28,0.0,WeatherDisplay:10.37,2013-01-21 08:21:00,
2013-01-21 09:26:00,50.2,48.5,29.46,West,275,1.2,1.2,94,0.00,OVC,FEW,0.28,0.0,WeatherDisplay:10.37,2013-01-21 08:26:00,
2013-01-21 09:31:00,50.3,48.7,29.46,West,275,3.5,0.0,94,0.00,OVC,FEW,0.28,0.0,WeatherDisplay:10.37,2013-01-21 08:31:00,
2013-01-21 09:36:00,50.8,49.1,29.46,West,275,4.0,4.0,94,0.00,OVC,FEW,0.28,0.0,WeatherDisplay:10.37,2013-01-21 08:36:00,
2013-01-21 09:41:00,51.0,49.3,29.46,West,275,2.0,4.0,94,0.00,OVC,FEW,0.28,0.0,WeatherDisplay:10.37,2013-01-21 08:41:00,
2013-01-21 09:46:00,51.3,49.6,29.46,West,275,3.5,3.5,94,0.00,OVC,FEW,0.28,0.0,WeatherDisplay:10.37,2013-01-21 08:46:00,
2013-01-21 09:51:00,51.4,49.7,29.46,WSW,241,3.5,3.5,94,0.00,OVC,FEW,0.28,0.0,WeatherDisplay:10.37,2013-01-21 08:51:00,
2013-01-21 09:56:00,51.2,49.5,29.46,SW,230,5.8,5.8,94,0.01,RA,FEW,0.28,0.0,WeatherDisplay:10.37,2013-01-21 08:56:00,
2013-01-21 10:01:00,51.1,49.4,29.46,WSW,246,3.5,3.5,94,0.01,RA,FEW,0.28,0.0,WeatherDisplay:10.37,2013-01-21 09:01:00,
2013-01-21 10:06:00,50.9,49.2,29.46,WSW,252,4.6,4.6,94,0.01,OVC,FEW,0.28,0.0,WeatherDisplay:10.37,2013-01-21 09:06:00,
2013-01-21 10:11:00,50.7,49.0,29.46,SW,227,6.0,6.0,94,0.01,OVC,FEW,0.28,0.0,WeatherDisplay:10.37,2013-01-21 09:11:00,
2013-01-21 10:16:00,50.6,48.9,29.46,West,265,5.8,5.8,94,0.01,OVC,FEW,0.29,0.0,WeatherDisplay:10.37,2013-01-21 09:16:00,
2013-01-21 10:21:00,50.5,48.8,29.47,WSW,240,11.5,11.5,94,0.02,RA,FEW,0.29,0.0,WeatherDisplay:10.37,2013-01-21 09:21:00,
2013-01-21 10:26:00,50.4,48.7,29.47,WSW,245,9.2,9.2,94,0.02,RA,FEW,0.30,0.0,WeatherDisplay:10.37,2013-01-21 09:26:00,
2013-01-21 10:31:00,50.3,48.6,29.47,SW,216,4.6,4.6,94,0.02,RA,FEW,0.30,0.0,WeatherDisplay:10.37,2013-01-21 09:31:00,
2013-01-21 10:36:00,50.1,48.4,29.47,WSW,248,6.9,6.9,94,0.03,RA,FEW,0.31,0.0,WeatherDisplay:10.37,2013-01-21 09:36:00,
2013-01-21 10:41:00,50.1,48.4,29.47,WSW,252,6.9,6.9,94,0.03,RA,FEW,0.31,0.0,WeatherDisplay:10.37,2013-01-21 09:41:00,
2013-01-21 10:46:00,50.0,48.3,29.47,SE,132,6.0,6.0,94,0.04,RA,FEW,0.31,0.0,WeatherDisplay:10.37,2013-01-21 09:46:00,
2013-01-21 10:52:00,50.0,48.3,29.47,SW,232,3.5,3.5,94,0.04,RA,FEW,0.31,0.0,WeatherDisplay:10.37,2013-01-21 09:52:00,
2013-01-21 10:57:00,50.1,48.4,29.47,SW,231,3.5,3.5,94,0.03,OVC,FEW,0.31,0.0,WeatherDisplay:10.37,2013-01-21 09:57:00,
2013-01-21 11:02:00,50.1,48.4,29.47,SW,231,3.5,3.5,94,0.03,OVC,FEW,0.31,0.0,WeatherDisplay:10.37,2013-01-21 10:02:00,
2013-01-21 11:07:00,50.2,48.5,29.47,SW,231,3.5,3.5,94,0.03,OVC,FEW,0.31,0.0,WeatherDisplay:10.37,2013-01-21 10:07:00,
2013-01-21 11:12:00,50.3,48.6,29.47,SW,231,2.3,2.3,94,0.03,OVC,FEW,0.31,0.0,WeatherDisplay:10.37,2013-01-21 10:12:00,
2013-01-21 11:17:00,50.5,48.8,29.47,WSW,242,4.6,4.6,94,0.02,OVC,FEW,0.31,0.0,WeatherDisplay:10.37,2013-01-21 10:17:00,
2013-01-21 11:22:00,50.5,48.8,29.47,WSW,251,6.9,6.9,94,0.02,OVC,FEW,0.31,0.0,WeatherDisplay:10.37,2013-01-21 10:22:00,
2013-01-21 11:27:00,50.4,48.7,29.47,WSW,252,4.6,4.6,94,0.02,OVC,FEW,0.31,0.0,WeatherDisplay:10.37,2013-01-21 10:27:00,
2013-01-21 11:32:00,50.3,48.6,29.47,South,185,11.5,11.5,94,0.02,OVC,FEW,0.31,0.0,WeatherDisplay:10.37,2013-01-21 10:32:00,
2013-01-21 11:38:00,50.3,48.6,29.47,West,279,5.8,5.8,94,0.01,OVC,FEW,0.31,0.0,WeatherDisplay:10.37,2013-01-21 10:38:00,
2013-01-21 11:43:00,50.3,48.6,29.47,WSW,254,5.8,5.8,94,0.01,OVC,FEW,0.31,0.0,WeatherDisplay:10.37,2013-01-21 10:43:00,
2013-01-21 11:48:00,50.4,48.7,29.47,SW,223,7.0,7.0,94,0.00,OVC,FEW,0.31,0.0,WeatherDisplay:10.37,2013-01-21 10:48:00,
2013-01-21 11:53:00,50.3,48.6,29.47,West,261,5.8,5.8,94,0.00,OVC,FEW,0.31,0.0,WeatherDisplay:10.37,2013-01-21 10:53:00,
2013-01-21 11:58:00,50.0,48.3,29.47,West,269,9.2,9.2,94,0.01,RA,FEW,0.32,0.0,WeatherDisplay:10.37,2013-01-21 10:58:00,
2013-01-21 12:03:00,49.7,48.0,29.47,West,264,5.0,5.0,94,0.01,RA,FEW,0.32,0.0,WeatherDisplay:10.37,2013-01-21 11:03:00,
2013-01-21 12:08:00,49.6,47.9,29.47,WSW,254,5.8,5.8,94,0.01,OVC,FEW,0.32,0.0,WeatherDisplay:10.37,2013-01-21 11:08:00,
2013-01-21 12:13:00,49.5,47.8,29.47,West,267,6.9,6.9,94,0.01,OVC,FEW,0.32,0.0,WeatherDisplay:10.37,2013-01-21 11:13:00,
2013-01-21 12:18:00,49.5,47.8,29.47,West,271,9.2,9.2,94,0.01,OVC,FEW,0.32,0.0,WeatherDisplay:10.37,2013-01-21 11:18:00,
2013-01-21 12:23:00,49.8,48.1,29.47,WNW,292,9.2,9.2,94,0.01,OVC,FEW,0.32,0.0,WeatherDisplay:10.37,2013-01-21 11:23:00,
2013-01-21 12:28:00,50.4,48.7,29.47,West,267,6.9,6.9,94,0.01,OVC,FEW,0.32,0.0,WeatherDisplay:10.37,2013-01-21 11:28:00,
2013-01-21 12:33:00,50.6,48.7,29.47,West,264,11.0,11.0,93,0.01,OVC,FEW,0.32,0.0,WeatherDisplay:10.37,2013-01-21 11:33:00,
2013-01-21 12:38:00,50.8,48.8,29.47,West,273,13.8,13.8,93,0.01,OVC,FEW,0.32,0.0,WeatherDisplay:10.37,2013-01-21 11:38:00,
2013-01-21 12:43:00,50.8,48.6,29.47,NW,304,8.1,8.1,92,0.01,OVC,FEW,0.32,0.0,WeatherDisplay:10.37,2013-01-21 11:43:00,
2013-01-21 12:48:00,50.9,48.7,29.47,West,266,11.5,11.5,92,0.01,OVC,FEW,0.32,0.0,WeatherDisplay:10.37,2013-01-21 11:48:00,
2013-01-21 12:53:00,50.9,48.7,29.47,West,274,11.5,11.5,92,0.01,OVC,FEW,0.32,0.0,WeatherDisplay:10.37,2013-01-21 11:53:00,
2013-01-21 12:58:00,51.0,48.5,29.47,NNE,24,21.9,21.9,91,0.00,OVC,FEW,0.32,0.0,WeatherDisplay:10.37,2013-01-21 11:58:00,
2013-01-21 13:03:00,50.9,48.1,29.47,WNW,292,11.5,11.5,90,0.00,OVC,FEW,0.32,0.0,WeatherDisplay:10.37,2013-01-21 12:03:00,
2013-01-21 13:08:00,51.1,47.7,29.47,West,269,19.6,19.6,88,0.00,OVC,FEW,0.32,0.0,WeatherDisplay:10.37,2013-01-21 12:08:00,
2013-01-21 13:13:00,51.1,47.4,29.47,West,265,17.3,17.3,87,0.00,OVC,FEW,0.32,0.0,WeatherDisplay:10.37,2013-01-21 12:13:00,
2013-01-21 13:18:00,51.4,47.7,29.47,WNW,288,11.5,11.5,87,0.00,OVC,FEW,0.32,0.0,WeatherDisplay:10.37,2013-01-21 12:18:00,
2013-01-21 13:23:00,51.7,47.6,29.48,West,271,15.0,15.0,86,0.00,OVC,FEW,0.32,0.0,WeatherDisplay:10.37,2013-01-21 12:23:00,
2013-01-21 13:28:00,52.2,47.8,29.48,WSW,240,18.4,18.4,85,0.00,OVC,FEW,0.32,0.0,WeatherDisplay:10.37,2013-01-21 12:28:00,
2013-01-21 13:33:00,52.2,47.2,29.48,NW,312,15.0,15.0,83,0.00,OVC,FEW,0.32,0.0,WeatherDisplay:10.37,2013-01-21 12:33:00,
2013-01-21 13:38:00,51.8,46.5,29.48,WSW,257,17.3,17.3,82,0.00,OVC,FEW,0.32,0.0,WeatherDisplay:10.37,2013-01-21 12:38:00,
2013-01-21 13:43:00,51.5,46.2,29.49,WNW,300,13.8,13.8,82,0.00,OVC,FEW,0.32,0.0,WeatherDisplay:10.37,2013-01-21 12:43:00,
2013-01-21 13:48:00,51.9,46.6,29.48,WNW,289,17.3,17.3,82,0.00,OVC,FEW,0.32,0.0,WeatherDisplay:10.37,2013-01-21 12:48:00,
2013-01-21 13:53:00,52.4,46.7,29.48,NW,311,11.5,11.5,81,0.00,OVC,FEW,0.32,0.0,WeatherDisplay:10.37,2013-01-21 12:53:00,
2013-01-21 13:58:00,52.5,46.5,29.49,WSW,243,15.0,15.0,80,0.00,OVC,FEW,0.32,0.0,WeatherDisplay:10.37,2013-01-21 12:58:00,
2013-01-21 14:03:00,52.9,46.9,29.49,WNW,285,16.0,16.0,80,0.00,OVC,FEW,0.32,0.0,WeatherDisplay:10.37,2013-01-21 13:03:00,
2013-01-21 14:08:00,53.2,46.9,29.49,West,275,15.0,15.0,79,0.00,OVC,FEW,0.32,0.0,WeatherDisplay:10.37,2013-01-21 13:08:00,
2013-01-21 14:13:00,52.8,46.1,29.49,WNW,298,11.5,11.5,78,0.00,OVC,FEW,0.32,0.0,WeatherDisplay:10.37,2013-01-21 13:13:00,
2013-01-21 14:18:00,52.7,46.0,29.49,West,273,13.8,13.8,78,0.00,OVC,FEW,0.32,0.0,WeatherDisplay:10.37,2013-01-21 13:18:00,
2013-01-21 14:23:00,52.4,45.4,29.49,WNW,292,17.3,17.3,77,0.00,OVC,FEW,0.32,0.0,WeatherDisplay:10.37,2013-01-21 13:23:00,
2013-01-21 14:28:00,52.2,45.5,29.49,West,264,12.7,12.7,78,0.00,OVC,FEW,0.32,0.0,WeatherDisplay:10.37,2013-01-21 13:28:00,
2013-01-21 14:33:00,52.7,46.4,29.49,West,265,15.0,15.0,79,0.00,OVC,FEW,0.32,0.0,WeatherDisplay:10.37,2013-01-21 13:33:00,
2013-01-21 14:38:00,53.0,46.3,29.49,WSW,254,13.8,13.8,78,0.00,OVC,FEW,0.32,0.0,WeatherDisplay:10.37,2013-01-21 13:38:00,
2013-01-21 14:43:00,52.8,45.4,29.49,NW,318,17.3,17.3,76,0.00,OVC,FEW,0.32,0.0,WeatherDisplay:10.37,2013-01-21 13:43:00,
2013-01-21 14:48:00,53.0,46.0,29.50,SW,236,12.7,12.7,77,0.00,OVC,FEW,0.32,0.0,WeatherDisplay:10.37,2013-01-21 13:48:00,
2013-01-21 14:53:00,53.0,46.3,29.50,WSW,254,17.3,17.3,78,0.00,OVC,FEW,0.32,0.0,WeatherDisplay:10.37,2013-01-21 13:53:00,
2013-01-21 14:58:00,52.6,45.9,29.50,West,261,12.7,12.7,78,0.00,OVC,FEW,0.32,0.0,WeatherDisplay:10.37,2013-01-21 13:58:00,
2013-01-21 15:03:00,52.4,45.7,29.50,WSW,250,13.8,13.8,78,0.00,OVC,FEW,0.32,0.0,WeatherDisplay:10.37,2013-01-21 14:03:00,
2013-01-21 15:09:00,52.1,45.4,29.50,West,276,13.8,13.8,78,0.00,OVC,FEW,0.32,0.0,WeatherDisplay:10.37,2013-01-21 14:09:00,
2013-01-21 15:14:00,52.0,45.7,29.51,WNW,302,15.0,15.0,79,0.00,OVC,FEW,0.32,0.0,WeatherDisplay:10.37,2013-01-21 14:14:00,
2013-01-21 15:19:00,52.0,45.7,29.51,WSW,257,11.5,11.5,79,0.00,OVC,FEW,0.32,0.0,WeatherDisplay:10.37,2013-01-21 14:19:00,
2013-01-21 15:24:00,52.2,45.5,29.51,West,277,11.5,11.5,78,0.00,OVC,FEW,0.32,0.0,WeatherDisplay:10.37,2013-01-21 14:24:00,
2013-01-21 15:29:00,52.1,45.4,29.52,WNW,288,13.8,13.8,78,0.00,OVC,FEW,0.32,0.0,WeatherDisplay:10.37,2013-01-21 14:29:00,
2013-01-21 15:34:00,51.3,44.0,29.52,West,270,12.7,12.7,76,0.00,OVC,FEW,0.32,0.0,WeatherDisplay:10.37,2013-01-21 14:34:00,
2013-01-21 15:39:00,50.6,43.7,29.52,SW,231,8.1,8.1,77,0.00,OVC,FEW,0.32,0.0,WeatherDisplay:10.37,2013-01-21 14:39:00,
2013-01-21 15:44:00,50.2,43.9,29.52,West,261,12.7,12.7,79,0.00,OVC,FEW,0.32,0.0,WeatherDisplay:10.37,2013-01-21 14:44:00,
2013-01-21 15:49:00,50.1,44.2,29.52,West,281,6.9,6.9,80,0.00,OVC,FEW,0.32,0.0,WeatherDisplay:10.37,2013-01-21 14:49:00,
2013-01-21 15:54:00,49.7,43.8,29.53,West,262,11.5,11.5,80,0.00,OVC,FEW,0.32,0.0,WeatherDisplay:10.37,2013-01-21 14:54:00,
2013-01-21 15:59:00,49.2,43.6,29.53,WSW,242,11.5,11.5,81,0.00,OVC,FEW,0.32,0.0,WeatherDisplay:10.37,2013-01-21 14:59:00,
2013-01-21 16:04:00,48.6,43.4,29.53,WNW,285,9.2,9.2,82,0.01,RA,FEW,0.33,0.0,WeatherDisplay:10.37,2013-01-21 15:04:00,
2013-01-21 16:09:00,48.3,43.4,29.53,WNW,283,11.5,11.5,83,0.01,RA,FEW,0.33,0.0,WeatherDisplay:10.37,2013-01-21 15:09:00,
2013-01-21 16:14:00,48.2,43.6,29.53,West,275,11.5,11.5,84,0.01,OVC,FEW,0.33,0.0,WeatherDisplay:10.37,2013-01-21 15:14:00,
2013-01-21 16:19:00,48.0,43.4,29.52,WSW,246,9.2,9.2,84,0.02,RA,FEW,0.34,0.0,WeatherDisplay:10.37,2013-01-21 15:19:00,
2013-01-21 16:24:00,47.5,42.9,29.52,WSW,252,10.4,10.4,84,0.02,RA,FEW,0.35,0.0,WeatherDisplay:10.37,2013-01-21 15:24:00,
2013-01-21 16:29:00,47.4,43.1,29.52,WSW,254,5.8,5.8,85,0.02,RA,FEW,0.35,0.0,WeatherDisplay:10.37,2013-01-21 15:29:00,
2013-01-21 16:34:00,47.4,43.4,29.52,SW,221,6.9,6.9,86,0.02,OVC,FEW,0.35,0.0,WeatherDisplay:10.37,2013-01-21 15:34:00,
2013-01-21 16:39:00,47.5,43.8,29.52,WNW,288,5.8,5.8,87,0.02,OVC,FEW,0.35,0.0,WeatherDisplay:10.37,2013-01-21 15:39:00,
2013-01-21 16:44:00,48.0,44.3,29.52,WSW,254,9.2,9.2,87,0.02,OVC,FEW,0.35,0.0,WeatherDisplay:10.37,2013-01-21 15:44:00,
2013-01-21 16:49:00,48.5,45.4,29.52,West,273,26.5,26.5,89,0.04,RA,FEW,0.37,0.0,WeatherDisplay:10.37,2013-01-21 15:49:00,
2013-01-21 16:54:00,48.4,45.3,29.53,WNW,291,18.4,18.4,89,0.06,RA,FEW,0.38,0.0,WeatherDisplay:10.37,2013-01-21 15:54:00,
2013-01-21 16:59:00,48.3,45.2,29.53,WSW,257,11.5,11.5,89,0.06,RA,FEW,0.39,0.0,WeatherDisplay:10.37,2013-01-21 15:59:00,
2013-01-21 17:04:00,48.0,44.9,29.53,WSW,254,10.4,10.4,89,0.06,RA,FEW,0.39,0.0,WeatherDisplay:10.37,2013-01-21 16:04:00,
2013-01-21 17:09:00,47.9,45.1,29.54,West,270,8.1,8.1,90,0.06,RA,FEW,0.39,0.0,WeatherDisplay:10.37,2013-01-21 16:09:00,
2013-01-21 17:14:00,47.9,45.1,29.54,West,277,9.0,9.0,90,0.06,OVC,FEW,0.39,0.0,WeatherDisplay:10.37,2013-01-21 16:14:00,
2013-01-21 17:19:00,47.7,44.9,29.54,SW,229,5.8,5.8,90,0.06,OVC,FEW,0.39,0.0,WeatherDisplay:10.37,2013-01-21 16:19:00,
2013-01-21 17:24:00,47.5,44.7,29.54,WSW,244,4.6,4.6,90,0.05,OVC,FEW,0.39,0.0,WeatherDisplay:10.37,2013-01-21 16:24:00,
2013-01-21 17:29:00,47.4,44.6,29.54,West,281,4.6,4.6,90,0.05,OVC,FEW,0.39,0.0,WeatherDisplay:10.37,2013-01-21 16:29:00,
2013-01-21 17:34:00,47.2,44.4,29.54,West,268,5.8,5.8,90,0.05,OVC,FEW,0.39,0.0,WeatherDisplay:10.37,2013-01-21 16:34:00,
2013-01-21 17:39:00,47.1,44.3,29.55,WSW,238,6.0,6.0,90,0.05,CLR,FEW,0.39,0.0,WeatherDisplay:10.37,2013-01-21 16:39:00,
2013-01-21 17:44:00,47.1,44.3,29.55,West,259,5.8,5.8,90,0.05,CLR,FEW,0.39,0.0,WeatherDisplay:10.37,2013-01-21 16:44:00,
2013-01-21 17:49:00,47.2,44.4,29.55,WSW,250,4.6,4.6,90,0.03,CLR,FEW,0.39,0.0,WeatherDisplay:10.37,2013-01-21 16:49:00,
2013-01-21 17:54:00,47.4,44.9,29.55,West,275,4.6,4.6,91,0.02,CLR,FEW,0.39,0.0,WeatherDisplay:10.37,2013-01-21 16:54:00,
2013-01-21 17:59:00,47.6,45.1,29.55,WNW,282,11.5,11.5,91,0.02,RA,FEW,0.40,0.0,WeatherDisplay:10.37,2013-01-21 16:59:00,
2013-01-21 18:04:00,47.7,45.2,29.55,West,267,8.1,8.1,91,0.01,RA,FEW,0.40,0.0,WeatherDisplay:10.37,2013-01-21 17:04:00,
2013-01-21 18:09:00,47.6,45.1,29.56,SW,225,5.8,5.8,91,0.02,RA,FEW,0.41,0.0,WeatherDisplay:10.37,2013-01-21 17:09:00,
2013-01-21 18:14:00,47.6,45.1,29.56,West,271,6.9,6.9,91,0.02,RA,FEW,0.41,0.0,WeatherDisplay:10.37,2013-01-21 17:14:00,
2013-01-21 18:19:00,47.6,45.1,29.56,West,278,10.4,10.4,91,0.02,,FEW,0.41,0.0,WeatherDisplay:10.37,2013-01-21 17:19:00,
2013-01-21 18:24:00,47.5,45.0,29.56,WSW,254,6.0,6.0,91,0.02,CLR,FEW,0.41,0.0,WeatherDisplay:10.37,2013-01-21 17:24:00,
2013-01-21 18:29:00,47.6,45.1,29.56,West,271,3.5,3.5,91,0.02,RA,FEW,0.42,0.0,WeatherDisplay:10.37,2013-01-21 17:29:00,
2013-01-21 18:34:00,47.7,45.2,29.56,West,270,4.0,4.0,91,0.02,RA,FEW,0.42,0.0,WeatherDisplay:10.37,2013-01-21 17:34:00,
2013-01-21 18:39:00,47.7,45.2,29.57,West,270,3.5,3.5,91,0.02,CLR,FEW,0.42,0.0,WeatherDisplay:10.37,2013-01-21 17:39:00,
2013-01-21 18:44:00,47.7,45.2,29.57,West,270,4.0,4.0,91,0.02,CLR,FEW,0.42,0.0,WeatherDisplay:10.37,2013-01-21 17:44:00,
2013-01-21 18:49:00,47.7,45.2,29.57,SSW,205,4.6,4.6,91,0.02,CLR,FEW,0.42,0.0,WeatherDisplay:10.37,2013-01-21 17:49:00,
2013-01-21 18:54:00,47.7,45.5,29.57,WNW,284,4.6,4.6,92,0.02,CLR,FEW,0.42,0.0,WeatherDisplay:10.37,2013-01-21 17:54:00,
2013-01-21 18:59:00,47.8,45.6,29.57,West,275,3.5,3.5,92,0.02,CLR,FEW,0.42,0.0,WeatherDisplay:10.37,2013-01-21 17:59:00,
2013-01-21 19:04:00,47.9,45.7,29.57,SW,236,1.2,1.2,92,0.02,CLR,FEW,0.42,0.0,WeatherDisplay:10.37,2013-01-21 18:04:00,
2013-01-21 19:09:00,47.9,45.7,29.57,West,270,5.8,5.8,92,0.01,CLR,FEW,0.42,0.0,WeatherDisplay:10.37,2013-01-21 18:09:00,
2013-01-21 19:14:00,48.0,45.8,29.58,West,273,6.9,6.9,92,0.01,CLR,FEW,0.42,0.0,WeatherDisplay:10.37,2013-01-21 18:14:00,
2013-01-21 19:19:00,47.8,45.3,29.58,West,261,13.8,13.8,91,0.06,RA,FEW,0.46,0.0,WeatherDisplay:10.37,2013-01-21 18:19:00,
2013-01-21 19:24:00,47.3,44.8,29.58,WNW,296,8.1,8.1,91,0.06,RA,FEW,0.47,0.0,WeatherDisplay:10.37,2013-01-21 18:24:00,
2013-01-21 19:29:00,47.8,45.6,29.58,West,273,8.1,8.1,92,0.06,RA,FEW,0.48,0.0,WeatherDisplay:10.37,2013-01-21 18:29:00,
2013-01-21 19:34:00,48.4,46.2,29.58,WSW,249,4.6,4.6,92,0.06,RA,FEW,0.48,0.0,WeatherDisplay:10.37,2013-01-21 18:34:00,
2013-01-21 19:39:00,48.6,46.4,29.58,WSW,243,5.8,5.8,92,0.06,CLR,FEW,0.48,0.0,WeatherDisplay:10.37,2013-01-21 18:39:00,
2013-01-21 19:44:00,48.7,46.8,29.58,West,273,3.5,3.5,93,0.06,CLR,FEW,0.48,0.0,WeatherDisplay:10.37,2013-01-21 18:44:00,
2013-01-21 19:49:00,48.7,46.5,29.58,West,273,2.3,2.3,92,0.06,CLR,FEW,0.48,0.0,WeatherDisplay:10.37,2013-01-21 18:49:00,
2013-01-21 19:54:00,48.7,46.8,29.58,West,261,3.5,3.5,93,0.06,CLR,FEW,0.48,0.0,WeatherDisplay:10.37,2013-01-21 18:54:00,
2013-01-21 19:59:00,48.6,46.7,29.58,SSW,202,3.5,3.5,93,0.06,CLR,FEW,0.48,0.0,WeatherDisplay:10.37,2013-01-21 18:59:00,
2013-01-21 20:04:00,48.6,46.7,29.58,South,189,8.1,8.1,93,0.06,CLR,FEW,0.48,0.0,WeatherDisplay:10.37,2013-01-21 19:04:00,
2013-01-21 20:09:00,48.4,46.2,29.58,SW,221,3.5,3.5,92,0.06,CLR,FEW,0.48,0.0,WeatherDisplay:10.37,2013-01-21 19:09:00,
2013-01-21 20:14:00,48.3,46.1,29.59,SSW,207,3.5,3.5,92,0.06,CLR,FEW,0.48,0.0,WeatherDisplay:10.37,2013-01-21 19:14:00,
2013-01-21 20:19:00,48.2,46.3,29.59,SW,236,3.5,3.5,93,0.02,CLR,FEW,0.48,0.0,WeatherDisplay:10.37,2013-01-21 19:19:00,
2013-01-21 20:24:00,48.2,46.3,29.59,West,265,3.5,3.5,93,0.02,RA,FEW,0.49,0.0,WeatherDisplay:10.37,2013-01-21 19:24:00,
2013-01-21 20:29:00,48.3,46.4,29.59,WSW,239,4.6,4.6,93,0.02,RA,FEW,0.50,0.0,WeatherDisplay:10.37,2013-01-21 19:29:00,
2013-01-21 20:34:00,48.4,46.5,29.59,WSW,246,3.5,3.5,93,0.02,RA,FEW,0.50,0.0,WeatherDisplay:10.37,2013-01-21 19:34:00,
2013-01-21 20:39:00,48.5,46.6,29.59,WSW,248,3.5,3.5,93,0.02,,FEW,0.50,0.0,WeatherDisplay:10.37,2013-01-21 19:39:00,
2013-01-21 20:44:00,48.5,46.6,29.59,WSW,257,4.6,4.6,93,0.02,CLR,FEW,0.50,0.0,WeatherDisplay:10.37,2013-01-21 19:44:00,
2013-01-21 20:49:00,48.5,46.6,29.58,SSW,205,3.0,3.0,93,0.02,CLR,FEW,0.50,0.0,WeatherDisplay:10.37,2013-01-21 19:49:00,
2013-01-21 20:54:00,48.4,46.5,29.59,SSW,202,2.3,2.3,93,0.02,CLR,FEW,0.50,0.0,WeatherDisplay:10.37,2013-01-21 19:54:00,
2013-01-21 20:59:00,48.3,46.4,29.59,SSW,207,4.6,4.6,93,0.02,CLR,FEW,0.50,0.0,WeatherDisplay:10.37,2013-01-21 19:59:00,
2013-01-21 21:04:00,48.2,46.3,29.59,SSE,162,6.0,6.0,93,0.02,CLR,FEW,0.50,0.0,WeatherDisplay:10.37,2013-01-21 20:04:00,
2013-01-21 21:09:00,48.2,46.3,29.59,SSE,167,4.6,4.6,93,0.02,CLR,FEW,0.50,0.0,WeatherDisplay:10.37,2013-01-21 20:09:00,
2013-01-21 21:14:00,48.2,46.3,29.59,WSW,251,3.5,3.5,93,0.02,CLR,FEW,0.50,0.0,WeatherDisplay:10.37,2013-01-21 20:14:00,
2013-01-21 21:19:00,48.2,46.3,29.59,SW,217,4.6,4.6,93,0.02,RA,FEW,0.50,0.0,WeatherDisplay:10.37,2013-01-21 20:19:00,
2013-01-21 21:24:00,48.3,46.4,29.59,West,272,6.0,6.0,93,0.02,RA,FEW,0.51,0.0,WeatherDisplay:10.37,2013-01-21 20:24:00,
2013-01-21 21:29:00,48.3,46.4,29.59,WSW,249,2.3,2.3,93,0.02,RA,FEW,0.51,0.0,WeatherDisplay:10.37,2013-01-21 20:29:00,
2013-01-21 21:34:00,48.2,46.3,29.59,SW,223,3.5,3.5,93,0.02,RA,FEW,0.52,0.0,WeatherDisplay:10.37,2013-01-21 20:34:00,
2013-01-21 21:39:00,48.2,46.3,29.60,West,269,9.2,9.2,93,0.03,RA,FEW,0.53,0.0,WeatherDisplay:10.37,2013-01-21 20:39:00,
2013-01-21 21:44:00,48.3,46.4,29.59,WSW,240,3.5,3.5,93,0.04,RA,FEW,0.54,0.0,WeatherDisplay:10.37,2013-01-21 20:44:00,
2013-01-21 21:49:00,48.4,46.5,29.60,West,271,4.0,4.0,93,0.04,RA,FEW,0.54,0.0,WeatherDisplay:10.37,2013-01-21 20:49:00,
2013-01-21 21:54:00,48.4,46.8,29.60,West,260,6.9,6.9,94,0.05,RA,FEW,0.54,0.0,WeatherDisplay:10.37,2013-01-21 20:54:00,
2013-01-21 21:59:00,48.6,47.0,29.60,West,271,5.8,5.8,94,0.05,RA,FEW,0.54,0.0,WeatherDisplay:10.37,2013-01-21 20:59:00,
2013-01-21 22:04:00,48.7,46.8,29.60,WSW,258,5.8,5.8,93,0.05,,FEW,0.55,0.0,WeatherDisplay:10.37,2013-01-21 21:04:00,
2013-01-21 22:09:00,48.6,46.7,29.60,SW,221,6.9,6.9,93,0.06,RA,FEW,0.55,0.0,WeatherDisplay:10.37,2013-01-21 21:09:00,
2013-01-21 22:14:00,48.4,46.5,29.60,SSE,153,4.6,4.6,93,0.06,RA,FEW,0.55,0.0,WeatherDisplay:10.37,2013-01-21 21:14:00,
2013-01-21 22:19:00,48.3,46.4,29.59,SW,229,3.5,3.5,93,0.05,CLR,FEW,0.55,0.0,WeatherDisplay:10.37,2013-01-21 21:19:00,
2013-01-21 22:24:00,48.1,46.2,29.59,SW,226,6.9,6.9,93,0.04,CLR,FEW,0.55,0.0,WeatherDisplay:10.37,2013-01-21 21:24:00,
2013-01-21 22:29:00,47.9,46.0,29.59,SW,223,6.9,6.9,93,0.04,CLR,FEW,0.55,0.0,WeatherDisplay:10.37,2013-01-21 21:29:00,
2013-01-21 22:34:00,47.8,45.9,29.59,SSW,195,5.8,5.8,93,0.03,CLR,FEW,0.55,0.0,WeatherDisplay:10.37,2013-01-21 21:34:00,
2013-01-21 22:39:00,47.7,45.8,29.59,SSW,207,6.9,6.9,93,0.02,CLR,FEW,0.55,0.0,WeatherDisplay:10.37,2013-01-21 21:39:00,
2013-01-21 22:44:00,47.8,45.9,29.59,SSW,199,5.8,5.8,93,0.02,CLR,FEW,0.55,0.0,WeatherDisplay:10.37,2013-01-21 21:44:00,
2013-01-21 22:49:00,47.9,46.3,29.59,SSE,167,6.0,6.0,94,0.02,CLR,FEW,0.55,0.0,WeatherDisplay:10.37,2013-01-21 21:49:00,
2013-01-21 22:54:00,48.1,46.2,29.59,SW,220,4.6,4.6,93,0.01,CLR,FEW,0.55,0.0,WeatherDisplay:10.37,2013-01-21 21:54:00,
2013-01-21 22:59:00,48.3,46.7,29.60,SSW,213,3.5,3.5,94,0.01,CLR,FEW,0.55,0.0,WeatherDisplay:10.37,2013-01-21 21:59:00,
2013-01-21 23:04:00,48.5,46.9,29.60,WSW,255,5.8,5.8,94,0.01,CLR,FEW,0.55,0.0,WeatherDisplay:10.37,2013-01-21 22:04:00,
2013-01-21 23:09:00,48.7,47.1,29.60,West,266,4.6,4.6,94,0.01,RA,FEW,0.56,0.0,WeatherDisplay:10.37,2013-01-21 22:09:00,
2013-01-21 23:14:00,48.9,47.0,29.60,SSW,213,3.5,3.5,93,0.01,RA,FEW,0.56,0.0,WeatherDisplay:10.37,2013-01-21 22:14:00,
2013-01-21 23:19:00,49.0,47.3,29.60,South,190,4.6,4.6,94,0.01,,FEW,0.56,0.0,WeatherDisplay:10.37,2013-01-21 22:19:00,
2013-01-21 23:24:00,49.1,47.4,29.60,SW,229,3.5,3.5,94,0.01,CLR,FEW,0.56,0.0,WeatherDisplay:10.37,2013-01-21 22:24:00,
2013-01-21 23:29:00,49.1,47.4,29.60,West,269,11.0,11.0,94,0.01,CLR,FEW,0.56,0.0,WeatherDisplay:10.37,2013-01-21 22:29:00,
2013-01-21 23:34:00,49.4,47.5,29.60,West,263,4.6,4.6,93,0.02,RA,FEW,0.57,0.0,WeatherDisplay:10.37,2013-01-21 22:34:00,
2013-01-21 23:39:00,49.2,47.3,29.60,WSW,242,5.8,5.8,93,0.02,RA,FEW,0.57,0.0,WeatherDisplay:10.37,2013-01-21 22:39:00,
2013-01-21 23:44:00,49.1,47.2,29.60,West,259,3.5,3.5,93,0.02,CLR,FEW,0.57,0.0,WeatherDisplay:10.37,2013-01-21 22:44:00,
2013-01-21 23:49:00,49.1,47.4,29.61,WSW,248,6.9,6.9,94,0.02,CLR,FEW,0.57,0.0,WeatherDisplay:10.37,2013-01-21 22:49:00,
2013-01-21 23:54:00,49.2,47.5,29.60,West,270,4.6,4.6,94,0.02,CLR,FEW,0.57,0.0,WeatherDisplay:10.37,2013-01-21 22:54:00,
2013-01-21 23:59:00,49.3,47.4,29.60,West,264,3.5,3.5,93,0.02,CLR,FEW,0.57,0.0,WeatherDisplay:10.37,2013-01-21 22:59:00,